Tracking 25709 objects as of 23-May-2022
HD Live streaming from Space Station
objects crossing your sky now

SPACEBEE-52

Track SPACEBEE-52 now!
10-day predictions


NORAD ID: 47425
Int'l Code: 2021-006N
Perigee: 494.2 km
Apogee: 507.4 km
Inclination: 97.4 °
Period: 94.5 minutes
Semi major axis: 6871 km
RCS: Unknown
Launch date: January 24, 2021
Source: United States (US)
Launch site: AIR FORCE EASTERN TEST RANGE (AFETR)
aabbcc
Your satellite tracking list
Your tracking list is empty




NASA's NSSDC Master Catalog

Two Line Element Set (TLE):
1 47425U 21006N   22143.13998428  .00042622  00000-0  17497-2 0  9993
2 47425  97.4462 205.2712 0009647   5.5072 354.6270 15.24045087 74554
Source of the keplerian elements: AFSPC